Regional Weather Roundup
Issued by NWS

Home | Current Version | Previous Version | Text Only | Print | Product List | Glossary On
Versions: 1 2 3 4 5 6 7 8 9 10 11 12 13 14 15 16 17 18 19 20 21 22 23 24 25 26 27
000
ASUS42 KTBW 202217
RWRFL
FLORIDA REGIONAL WEATHER ROUNDUP
NATIONAL WEATHER SERVICE TAMPA BAY RUSKIN FL
500 PM EST MON FEB 20 2017

NOTE: "FAIR" INDICATES FEW OR NO CLOUDS BELOW 12,000 FEET WITH NO
SIGNIFICANT WEATHER AND/OR OBSTRUCTIONS TO VISIBILITY.

FLZ001>010-012>015-112-114-115-202300-
PANHANDLE FLORIDA

CITY           SKY/WX    TMP DP  RH WIND       PRES   REMARKS
PENSACOLA      SUNNY     71  63  75 SE10      30.08S
PENSACOLA NAS  SUNNY     70  64  81 SE12      30.07F
MILTON NAS     LGT RAIN  75  55  49 S14       30.07
CRESTVIEW      MOSUNNY   77  56  48 S8        30.10S
DUKE FIELD     FAIR      75  58  55 S12       30.08S
VALPARAISO     PTSUNNY   71  62  71 SE8       30.09F
TRI COUNTY     CLOUDY    80  56  43 SW5       30.07S
PANAMA CITY    FAIR      74  56  53 S12       30.09S
TYNDALL AFB    SUNNY     73  59  61 S14       30.10R
APALACHICOLA   SUNNY     72  62  71 SE8       30.10S

STATION/POSITION SKY/WX   TEMP    WIND        PRES    WAVE   SWELL
                          AIR SEA DIR/SP/G            HT/PER HT/PER
                          (F)     (DEG/KT/KT) (MB)    (FT/S) (FT/S)
30.1N   87.6W              69 69  110/ 10/ 12 1017.9F   2/ 6   2/ 6
28.8N   86.0W              71 70              1018.4    2/ 4
PANAMA CITY BEAC           68     170/ 11/ 12 1019.2F
TOWER C                    68     130/  5/  5 1020.1R
28.5N   84.5W              71 70  140/  8/ 10 1018.8S   1/ 7   2/ 7

$$
FLZ011-016>038-118-127-128-134-139-239-202300-
NORTH FLORIDA

CITY           SKY/WX    TMP DP  RH WIND       PRES   REMARKS
MARIANNA       SUNNY     81  53  37 VRB6      30.06F
TALLAHASSEE    PTSUNNY   78  55  44 S9        30.09R
PERRY          SUNNY     79  56  44 SW7       30.10R
CROSS CITY     SUNNY     79  57  47 W8        30.09R
LAKE CITY      FAIR      79  54  41 SE5       30.10R
GAINESVILLE    SUNNY     80  53  39 SE6       30.09S
WILLISTON      SUNNY     84  54  34 CALM      30.08S
PALATKA        FAIR      77  54  44 E9        30.10S
MAYPORT NAS    SUNNY     68  60  75 NE10      30.13F
JACKSONVILLE   PTSUNNY   72  57  59 E14       30.12S
JAX NAS        PTSUNNY   76  52  43 E12       30.12S
FERNANDINA BEA FAIR      70  61  73 NE9       30.13S
PALM COAST     SUNNY    N/A N/A N/A E9        30.12R

STATION/POSITION SKY/WX   TEMP    WIND        PRES    WAVE   SWELL
                          AIR SEA DIR/SP/G            HT/PER HT/PER
                          (F)     (DEG/KT/KT) (MB)    (FT/S) (FT/S)
SHELL POINT      NOT AVBL
KEATON BEACH               69     220/  5/  5 1018.9S
CEDAR KEY                  72     240/  5/  7 1019.0F
FERNANDINA                 69 66   50/  6/  8 1021.3S
30.7N   81.3W                 65                N/A     1/10
MAYPORT                    66 65   60/  9/ 12 1020.6F
31.4N   80.9W              63 63   40/  8/  8 1020.6    1
ST AUGUSTINE               67 69   50/ 11/ 12 1020.9F

$$
FLZ040-043>046-052-053-057-058-063-144-202300-
INTERIOR CENTRAL FLORIDA

CITY           SKY/WX    TMP DP  RH WIND       PRES   REMARKS
OCALA          MOSUNNY   81  54  39 NE6       30.09S
THE VILLAGES     N/A     81  64  57 CALM      29.99S
LEESBURG       SUNNY     81  54  39 S5        30.09S
SANFORD        SUNNY     78  59  51 E16       30.09R
ORLANDO EXEC   PTSUNNY   80  60  50 E15       30.08R
ORLANDO INTL   MOSUNNY   81  60  48 E14       30.08S
KISSIMMEE      SUNNY     80  60  50 SE8       30.09R
WINTER HAVEN   SUNNY     81  52  36 E7        30.09S
LAKELAND       SUNNY     82  54  36 SE6       30.08S
BARTOW         MOSUNNY   81  54  39 SE6       30.08S
OKEECHOBEE     MOSUNNY   77  61  57 E8        30.08R

$$
FLZ041-047-054-059-064-141-147-202300-
EAST CENTRAL FLORIDA

CITY           SKY/WX    TMP DP  RH WIND       PRES   REMARKS
ORMOND BEACH   SUNNY     72  63  73 NE12      30.11S
DAYTONA BEACH  MOSUNNY   75  61  61 NE10      30.11S
DELAND         SUNNY     77  59  53 NE10      30.10R
NEW SMYRNA BEA SUNNY     72  64  78 NE13G18   30.12R
JFK SPACE CTR  SUNNY     74  66  77 NE9       30.09F
TITUSVILLE     MOSUNNY   75  63  64 E12       30.11S
CAPE CANAVERAL SUNNY     74  66  76 NE12      30.09S
PATRICK AFB    SUNNY     74  68  81 NE13      30.09S
MELBOURNE      MOSUNNY   74  66  76 NE10      30.09S
VERO BEACH     SUNNY     76  63  64 NE8       30.09S
FT PIERCE      SUNNY     76  62  62 E7        30.09R
STUART         MOSUNNY   79  63  57 E14       30.10S

STATION/POSITION SKY/WX   TEMP    WIND        PRES    WAVE   SWELL
                          AIR SEA DIR/SP/G            HT/PER HT/PER
                          (F)     (DEG/KT/KT) (MB)    (FT/S) (FT/S)
TRIDENT PIER               75 71   30/  6/ 10 1020.3F
28.4N   80.5W                 71                N/A     2/ 6
27.5N   80.2W                 73                N/A     2/ 6

$$
FLZ050-056-061-142-242-148-248-149-249-151-251-155-255-
160-260-202300-
WEST CENTRAL FLORIDA

CITY           SKY/WX    TMP DP  RH WIND       PRES   REMARKS
CRYSTAL RIVER  FAIR      77  59  53 NW5       30.08S
INVERNESS      FAIR      81  57  44 E5        30.09R
BROOKSVILLE    SUNNY     82  54  37 S6        30.08S
CLEARWATER AIR FAIR      73  61  64 NW8       30.08R
ST PETE CLEARW SUNNY     82  54  37 CALM      30.07R
TAMPA INTL     MOSUNNY   83  57  41 VRB7      30.07S
TAMPA EXEC     SUNNY     86  55  35 E5        30.07S
PLANT CITY     SUNNY     82  55  39 E6        30.09S
MACDILL AFB    SUNNY     85  58  40 NW5       30.06S
PETER O KNIGHT SUNNY     84  59  42 W3        30.07S
ST PETERSBURG  SUNNY     77  61  57 W9        30.05S
SARASOTA       SUNNY     75  62  64 W9        30.06S
VENICE         FAIR      75  66  73 W7        30.07S

STATION/POSITION SKY/WX   TEMP    WIND        PRES    WAVE   SWELL
                          AIR SEA DIR/SP/G            HT/PER HT/PER
                          (F)     (DEG/KT/KT) (MB)    (FT/S) (FT/S)
27.3N   84.2W                 72                N/A     2/ 7
CLEARWATER BEACH           71 75  310/  6/  8 1018.8R
MIDDLE TAMPA BAY           73     280/  9/ 10 1018.7R
VENICE                     72 71  300/  6/  7 1018.1R

$$
FLZ066-069-070-075>078-162-262-165-265-202300-
SOUTHWEST FLORIDA AND KEYS

CITY           SKY/WX    TMP DP  RH WIND       PRES   REMARKS
PUNTA GORDA    SUNNY     80  61  52 SW12      30.06S
FT MYERS       SUNNY     85  55  35 SE3       30.04S
SOUTHWEST INTL SUNNY     83  54  36 E13       30.05S
NAPLES         SUNNY     77  65  66 SW9       30.05S
MARCO ISLAND   SUNNY     79  64  61 SW9       30.06S
MARATHON       SUNNY     79  64  60 E8        30.06S
KEY WEST NAS   MOSUNNY   77  64  64 E15       30.07R
KEY WEST INTL  MOSUNNY   79  66  64 E14       30.07R

STATION/POSITION SKY/WX   TEMP    WIND        PRES    WAVE   SWELL
                          AIR SEA DIR/SP/G            HT/PER HT/PER
                          (F)     (DEG/KT/KT) (MB)    (FT/S) (FT/S)
NAPLES                        75              1017.8S
26.0N   85.6W              75 75  120/ 12/ 16 1017.4F   2/ 4   2/15
DRY TORTUGAS               75     110/  6/  7 1018.1F
SAND KEY                   76     110/ 14/ 16 1018.5R
LONG KEY                   75 78  110/ 13/ 15 1018.1F
MOLASSES REEF              75 77   80/ 10/ 11 1018.6R

$$
FLZ067-068-071>074-168-172>174-202300-
SOUTHEAST FLORIDA

CITY           SKY/WX    TMP DP  RH WIND       PRES   REMARKS
W PALM BEACH   PTSUNNY   76  59  55 E10       30.09R
BOCA RATON     MOSUNNY   75  61  60 E13         N/A
FT LAUDER-EXEC MOSUNNY   79  60  52 NE12      30.07S
FT LAUDERDALE  MOSUNNY   78  62  57 E7        30.07R
POMPANO BEACH  SUNNY     77  61  57 E10       30.08R
PEMBROKE PINES MOSUNNY   78  61  55 E14       30.09R
OPA LOCKA      MOSUNNY   77  61  57 E12       30.07S
MIAMI          MOSUNNY   74  62  66 E12       30.07R
WEST KENDALL   MOSUNNY   77  61  57 E12       30.07R
HOMESTEAD      SUNNY     77  65  66 E5        30.07R

STATION/POSITION SKY/WX   TEMP    WIND        PRES    WAVE   SWELL
                          AIR SEA DIR/SP/G            HT/PER HT/PER
                          (F)     (DEG/KT/KT) (MB)    (FT/S) (FT/S)
PORT EVERGLADES            75      60/  9/ 12 1018.4R
VIRGINIA KEY               75 82   70/ 10/ 12 1018.7R
LAKE WORTH                 75      60/ 11/ 12 1019.4R
FOWEY ROCKS                75 77   50/ 13/ 13 1019.0R

$$





USA.gov is the U.S. government's official web portal to all federal, state and local government web resources and services.